Location: Writing-on-Stone Provincial Park
(49.0825°N, 111.6163°W)
Time: 01:53:46
(UTC-07:00)

Daily predictions for brighter satellites

Satellite Brightness Start Highest point End
(mag) Time Altitude Azimuth Time Altitude Azimuth Time Altitude Azimuth
ATLAS 5 CENTAUR R/B 4.4 03:09:45 17° ENE 03:09:45 17° ENE 03:11:29 10° ENE
Cosmos 1943 Rocket 4.1 03:15:06 22° E 03:15:06 22° E 03:18:41 10° NE
ADEOS II 4.2 03:23:28 10° NE 03:27:28 21° E 03:28:37 20° ESE
Lacrosse 5 rocket 4.4 03:44:18 11° ENE 03:44:18 11° ENE 03:44:28 10° ENE
Resurs 1-4 Rocket 3.9 03:48:30 10° N 03:50:35 23° N 03:50:35 23° N
Lacrosse 5 3.2 03:55:46 36° E 03:55:46 36° E 03:59:17 10° ENE
Cosmos 1867 4.3 04:01:05 50° NNE 04:01:05 50° NNE 04:05:09 10° NE
CZ-2D R/B 3.8 03:57:00 10° N 03:59:18 24° N 03:59:18 24° N
Cosmos 1624 Rocket 4.4 04:08:31 61° NE 04:08:31 61° NE 04:13:01 10° NNE
Cosmos 2056 Rocket 3.9 04:10:27 60° ENE 04:10:27 60° ENE 04:14:54 10° NNE
Cosmos 1954 Rocket 4.4 04:06:25 10° NNW 04:11:43 63° ENE 04:17:00 10° SE
Cosmos 972 Rocket 4.3 04:12:43 70° ENE 04:12:43 70° ENE 04:17:57 10° NNE
CZ-4C R/B 3.6 04:13:00 25° SSE 04:14:50 30° ESE 04:19:57 10° NE
IRS-1C Rocket 4.5 04:11:24 10° NNE 04:16:38 60° ESE 04:17:18 56° SE
ADEOS Rocket 3.5 04:12:34 10° N 04:18:21 50° NW 04:18:21 50° NW
Cosmos 2219 3.7 04:14:04 10° NNW 04:19:41 56° ENE 04:25:14 10° SE
Okean O Rocket 2.6 04:16:20 10° NNE 04:19:20 42° NNE 04:19:20 42° NNE
GEOS 3 Rocket 3.8 04:16:35 10° SE 04:20:41 59° SE 04:20:41 59° SE
Cosmos 2227 Rocket 4.2 04:17:01 10° NNW 04:21:43 26° NE 04:26:24 10° E
Cosmos 2369 Rocket 2.4 04:23:10 58° NNW 04:23:10 58° NNW 04:28:05 10° NNE
Cosmos 2278 Rocket 4.4 04:24:11 12° NNW 04:24:11 12° NNW 04:26:22 10° N
USA 234 4.5 04:22:55 10° ENE 04:28:45 34° SE 04:32:32 19° S
Cosmos 1371 Rocket 4.3 04:39:11 50° NNW 04:39:11 50° NNW 04:43:32 10° NNE
Meteor 2-10 Rocket 4.0 04:35:44 23° SSE 04:38:39 55° E 04:43:40 10° NNE
Cosmos 1023 Rocket 4.5 04:33:32 10° NNW 04:38:48 81° ENE 04:44:05 10° SSE
ERS-2 3.0 04:35:23 10° NNE 04:38:43 48° E 04:38:43 48° E
Okean 1-7 4.3 04:37:17 14° SSE 04:40:29 38° E 04:44:26 10° NNE
IRAS Rocket 4.1 04:43:06 10° NNE 04:48:37 77° WNW 04:49:59 52° SW
PSLV R/B 3.4 04:45:43 10° NNE 04:49:44 80° N 04:49:44 80° N
Cosmos 1452 Rocket 3.7 04:48:20 32° S 04:50:45 69° ESE 04:56:02 10° NNE
ATLAS 5 CENTAUR R/B 1.8 04:51:18 62° WNW 04:51:38 64° NW 04:56:57 10° NE
Thor Agena Rocket 3.8 04:47:23 10° SSE 04:52:33 70° ENE 04:57:40 10° NNW
Abrixas 4.4 04:55:33 28° E 04:55:33 28° E 04:57:07 10° E
Nadezhda 2 Rocket 4.4 04:49:14 10° NNW 04:55:14 60° W 05:01:14 10° S
MOS 1 Rocket 3.8 04:51:20 10° N 04:56:36 50° WNW 04:56:45 50° WNW
Cosmos 1943 Rocket 2.1 04:56:39 54° WSW 04:57:42 65° WNW 05:03:16 10° NNE
Cosmos 1741 Rocket 4.1 04:53:47 10° NNW 04:59:03 75° ENE 05:04:19 10° SSE
Cosmos 1782 Rocket 3.4 04:55:26 10° NNW 04:59:55 80° W 05:04:22 10° S
BREEZE-M DEB 4.5 05:04:26 76° NE 05:04:26 76° NE 05:08:39 10° E
ADEOS II 2.0 05:02:25 10° N 05:07:38 62° WNW 05:09:35 37° SW
Cosmos 1140 Rocket 3.4 05:05:21 10° NNW 05:10:29 58° WSW 05:15:37 10° S
CZ-4B R/B 3.3 05:05:59 10° N 05:11:29 58° WNW 05:14:01 32° SW
Cosmos 614 Rocket 3.8 05:07:22 10° NNW 05:12:27 72° WSW 05:17:34 10° SSE
Cosmos 1745 Rocket 4.0 05:08:57 10° N 05:15:09 85° E 05:21:17 10° S
SKYMED 2 4.1 05:13:28 10° SSE 05:17:45 61° ENE 05:22:03 10° N
Tiangong 1 2.8 05:19:40 22° SSE 05:19:40 22° SSE 05:21:43 10° ESE
Cosmos 1417 Rocket 4.3 05:13:32 10° SSW 05:19:42 81° W 05:25:53 10° N
Okean-O 2.6 05:16:14 10° NNE 05:20:42 88° E 05:25:08 10° SSW
Lacrosse 5 rocket 0.9 05:20:02 49° NW 05:20:55 82° NE 05:24:31 10° ESE
Meteor 1-20 Rocket 4.1 05:17:13 10° NNW 05:22:58 83° W 05:28:35 10° S
Cosmos 2082 4.5 05:18:37 10° NNW 05:24:12 53° NE 05:29:42 10° SE
CZ-4B R/B 3.8 05:21:18 10° NNE 05:25:19 87° WNW 05:29:30 10° SSW
Okean 2 Rocket 3.1 05:27:23 10° NNW 05:31:40 51° W 05:35:55 10° S
USA 81 4.3 05:27:02 10° S 05:32:16 70° E 05:37:32 10° N
Cosmos 1606 3.5 05:29:19 10° S 05:33:07 54° E 05:36:57 10° NNE
Lacrosse 5 2.1 05:34:59 29° W 05:37:25 57° NNW 05:42:26 10° NE
Cosmos 1703 Rocket 4.0 05:36:45 29° WSW 05:38:14 38° WNW 05:42:22 10° N
CZ-3B DEB 2.1 05:42:41 13° NE 05:42:41 13° NE 05:43:09 10° NE
Cosmos 1782 2.7 05:38:37 10° S 05:42:35 90° WSW 05:46:37 10° N
Okean 1 Rocket 4.3 05:40:53 10° N 05:45:08 44° ENE 05:49:19 10° SSE
Cosmos 2297 Rocket 2.6 05:40:14 10° NNW 05:45:54 66° ENE 05:51:31 10° SE
Cosmos 1607 4.5 05:41:57 10° SSW 05:47:55 59° ESE 05:54:01 10° NE
Cosmos 1850 Rocket 4.3 05:43:23 10° NW 05:48:27 44° WSW 05:53:27 10° S
Meteor PRIRODA 4.4 05:45:35 10° N 05:48:53 31° WNW 05:50:05 25° WSW
Cosmos 2151 Rocket 3.5 05:47:06 10° NNW 05:51:35 66° W 05:56:01 10° S
Okean O Rocket 3.2 05:53:57 10° NNW 05:56:35 16° WNW 05:56:48 16° WNW
Ariane Rocket 3.9 05:51:47 10° NNE 05:56:48 52° E 06:01:43 10° S
Meteor 1-31 Rocket 3.3 05:53:58 10° N 05:57:34 36° WNW 06:01:05 10° SW
Cosmos 1656 Rocket 4.0 05:53:03 13° SW 05:57:56 49° NW 06:03:27 10° NNE
Meteor 2-6 Rocket 4.1 05:56:02 10° S 06:01:25 87° W 06:06:55 10° NNE
Cosmos 1633 2.4 05:58:18 10° NNW 06:01:58 82° W 06:05:34 10° S
CZ-4C R/B 2.4 05:58:13 14° WSW 06:02:55 60° NW 06:09:10 10° NE
Cosmos 2219 4.0 05:58:47 10° NW 06:03:30 27° WSW 06:08:10 10° SSW
Cosmos 1420 Rocket 4.2 06:00:22 10° SW 06:05:23 49° WNW 06:10:27 10° NNE
COSMO-SKYMED 1 2.8 06:01:43 10° S 06:05:53 45° W 06:10:05 10° NNW
Cosmos 2227 Rocket 2.2 06:00:41 10° NNW 06:06:21 73° WSW 06:12:00 10° SSE
Cosmos 2369 Rocket 3.9 06:04:58 13° WNW 06:07:38 17° NW 06:11:16 10° N
Meteor 2-11 Rocket 4.4 06:02:19 10° SSW 06:08:25 71° WNW 06:14:35 10° N
S3M 4.2 06:02:53 10° SSW 06:08:57 47° WNW 06:15:00 10° N
NOAA 6 4.1 06:04:27 10° N 06:09:32 59° WNW 06:14:34 10° SSW
USA 234 3.3 06:05:41 10° NE 06:12:16 88° NNW 06:18:49 10° WSW
ERS-2 3.8 06:10:01 10° NNW 06:12:24 16° WNW 06:13:30 15° W
Cosmos 1553 Rocket 4.4 06:09:06 10° SW 06:14:58 42° WNW 06:20:58 10° N
SL-24 R/B - RUBIN 2 4.3 06:10:02 10° NW 06:16:14 67° WSW 06:21:42 10° SSE
Cosmos 1486 Rocket 4.2 06:11:38 10° NNW 06:16:56 80° ENE 06:22:10 10° SSE
IDEFIX/ARIANE 42P 3.8 06:12:57 10° NNE 06:18:00 46° E 06:22:59 10° S
Okean 1-7 4.1 06:14:47 10° WSW 06:18:13 23° WNW 06:21:39 10° NNW
USA 238 DEB 4.4 06:12:58 10° SSW 06:19:50 61° ESE 06:26:44 10° NE
USA 238 4.4 06:13:04 10° SSW 06:19:55 60° ESE 06:26:50 10° NE
Cosmos 1331 Rocket 4.3 06:17:26 10° SSW 06:22:35 74° ESE 06:27:50 10° NNE
Abrixas 2.7 06:26:55 12° W 06:29:30 55° SSW 06:32:20 10° ESE
CZ-4 R/B 2.6 06:27:28 10° NNE 06:31:33 50° E 06:35:32 10° S
YAOGAN 1 4.4 06:28:36 10° NNE 06:32:38 36° E 06:36:39 10° SSE
Meteor 1-11 Rocket 4.0 06:28:22 10° NNW 06:34:11 54° W 06:39:52 10° S
ATLAS 5 CENTAUR R/B 3.5 06:33:19 10° WNW 06:37:23 23° NNW 06:41:46 10° NNE
Cosmos 1110 Rocket 4.0 06:32:29 10° SSW 06:37:39 77° WNW 06:42:52 10° NNE
ATLAS 3B R/B 2.9 06:32:29 10° SW 06:40:02 79° NW 06:47:16 10° NE
Cosmos 1697 Rocket 4.1 06:35:18 10° S 06:40:39 45° ESE 06:46:02 10° NE
CZ-2C R/B 2.9 06:36:00 10° NNE 06:40:54 70° ESE 06:45:57 10° S
Cosmos 1709 Rocket 4.2 06:35:52 10° NNW 06:41:42 48° W 06:47:31 10° SSW
Cosmos 2074 Rocket 4.2 06:36:51 10° N 06:43:13 84° E 06:49:30 10° S
